QPF
0.00 0.00 0.00 0.00 0.00 0.00 0.00 0.00 0.00 0.00 0.00 0.00 0.00 0.00 0.00 0.00 0.00 0.00 0.00 0.00 0.00 0.00 0.02 0.04 0.03 0.01 0.01 0.01 0.01 0.00 0.00 0.00 0.00 0.00 0.01 0.01 0.02 0.02 0.02 0.02 0.02 0.02 0.02 0.03
0.00 0.00 0.00 0.00 0.00 0.00 0.00 0.00 0.00 0.00 0.00 0.00 0.00 0.00 0.00 0.00 0.00 0.00 0.00 0.00 0.00 0.00 0.01 0.02 0.02 0.01 0.01 0.00 0.00 0.00 0.00 0.00 0.00 0.00 0.00 0.01 0.01 0.01 0.01 0.01 0.02 0.02 0.02 0.02
0.00 0.00 0.00 0.00 0.00 0.00 0.00 0.00 0.00 0.00 0.00 0.00 0.00 0.00 0.00 0.00 0.00 0.00 0.00 0.00 0.00 0.00 0.01 0.01 0.02 0.02 0.01 0.00 0.00 0.00 0.00 0.00 0.00 0.00 0.00 0.00 0.01 0.01 0.01 0.01 0.01 0.02 0.02 0.02
0.00 0.00 0.00 0.00 0.00 0.00 0.00 0.00 0.00 0.00 0.00 0.00 0.00 0.00 0.00 0.00 0.00 0.00 0.00 0.00 0.00 0.00 0.01 0.02 0.03 0.04 0.02 0.00 0.00 0.00 0.00 0.00 0.00 0.01 0.00 0.00 0.00 0.01 0.01 0.01 0.02 0.02 0.01 0.01
0.00 0.00 0.00 0.00 0.00 0.00 0.00 0.00 0.00 0.00 0.00 0.00 0.00 0.00 0.00 0.00 0.00 0.00 0.00 0.00 0.00 0.01 0.02 0.06 0.07 0.07 0.05 0.02 0.01 0.01 0.01 0.00 0.00 0.00 0.00 0.01 0.01 0.01 0.01 0.02 0.03 0.04 0.03 0.02
0.00 0.00 0.00 0.00 0.00 0.00 0.00 0.00 0.00 0.00 0.00 0.00 0.00 0.00 0.00 0.00 0.00 0.00 0.00 0.00 0.00 0.00 0.02 0.04 0.05 0.05 0.04 0.03 0.02 0.01 0.00 0.00 0.00 0.00 0.00 0.00 0.01 0.02 0.03 0.04 0.04 0.04 0.05 0.04
0.00 0.00 0.00 0.00 0.00 0.00 0.00 0.00 0.00 0.00 0.00 0.00 0.00 0.00 0.00 0.00 0.00 0.00 0.00 0.00 0.00 0.00 0.00 0.00 0.00 0.01 0.00 0.01 0.01 0.00 0.00 0.01 0.01 0.01 0.01 0.01 0.01 0.02 0.05 0.05 0.05 0.05 0.05 0.04
0.00 0.00 0.00 0.00 0.00 0.00 0.00 0.00 0.00 0.00 0.00 0.00 0.00 0.00 0.00 0.00 0.00 0.00 0.00 0.00 0.00 0.00 0.00 0.00 0.00 0.00 0.00 0.00 0.00 0.00 0.01 0.01 0.01 0.01 0.01 0.01 0.02 0.04 0.05 0.06 0.06 0.05 0.04 0.04
0.00 0.00 0.00 0.00 0.00 0.00 0.00 0.00 0.00 0.00 0.00 0.00 0.00 0.00 0.00 0.00 0.00 0.00 0.00 0.00 0.00 0.00 0.00 0.00 0.00 0.00 0.00 0.00 0.00 0.00 0.01 0.01 0.01 0.02 0.02 0.03 0.05 0.07 0.07 0.07 0.06 0.05 0.04 0.04
0.00 0.00 0.00 0.00 0.00 0.00 0.00 0.00 0.00 0.00 0.00 0.00 0.00 0.00 0.00 0.00 0.00 0.00 0.00 0.00 0.00 0.00 0.00 0.00 0.00 0.00 0.00 0.01 0.01 0.01 0.01 0.02 0.03 0.03 0.03 0.05 0.08 0.08 0.08 0.09 0.09 0.08 0.06 0.05
0.00 0.00 0.00 0.00 0.00 0.00 0.00 0.00 0.00 0.00 0.00 0.00 0.00 0.00 0.00 0.00 0.00 0.00 0.00 0.00 0.00 0.00 0.00 0.00 0.01 0.01 0.02 0.03 0.02 0.02 0.03 0.03 0.04 0.04 0.04 0.06 0.08 0.09 0.10 0.11 0.10 0.08 0.06 0.04
0.00 0.00 0.00 0.00 0.00 0.00 0.00 0.00 0.00 0.00 0.00 0.00 0.00 0.00 0.00 0.00 0.00 0.00 0.00 0.00 0.00 0.00 0.01 0.01 0.02 0.02 0.02 0.03 0.02 0.02 0.02 0.03 0.04 0.04 0.05 0.09 0.11 0.11 0.13 0.12 0.09 0.08 0.06 0.05
0.00 0.00 0.00 0.00 0.00 0.00 0.00 0.00 0.00 0.00 0.00 0.00 0.00 0.00 0.00 0.00 0.00 0.00 0.00 0.00 0.00 0.00 0.01 0.02 0.02 0.02 0.03 0.04 0.03 0.02 0.02 0.02 0.03 0.03 0.03 0.06 0.09 0.10 0.12 0.13 0.11 0.09 0.07 0.05
0.00 0.00 0.00 0.00 0.00 0.00 0.00 0.00 0.00 0.00 0.00 0.00 0.00 0.00 0.00 0.00 0.00 0.00 0.00 0.00 0.00 0.01 0.01 0.02 0.03 0.03 0.03 0.03 0.02 0.02 0.02 0.03 0.05 0.05 0.04 0.06 0.08 0.12 0.14 0.15 0.12 0.07 0.04 0.03
0.00 0.00 0.00 0.00 0.00 0.00 0.00 0.00 0.00 0.00 0.00 0.00 0.00 0.00 0.00 0.00 0.00 0.00 0.00 0.00 0.01 0.01 0.02 0.02 0.03 0.03 0.02 0.02 0.02 0.03 0.04 0.06 0.07 0.08 0.09 0.08 0.10 0.15 0.15 0.13 0.10 0.07 0.04 0.03
0.00 0.00 0.00 0.00 0.00 0.00 0.00 0.00 0.00 0.00 0.00 0.00 0.00 0.00 0.00 0.00 0.00 0.00 0.00 0.00 0.01 0.03 0.03 0.04 0.04 0.03 0.02 0.02 0.01 0.02 0.03 0.05 0.05 0.06 0.06 0.07 0.08 0.10 0.09 0.07 0.05 0.03 0.03 0.03
0.00 0.00 0.00 0.00 0.00 0.00 0.00 0.00 0.00 0.00 0.00 0.00 0.00 0.00 0.00 0.00 0.01 0.01 0.00 0.00 0.01 0.02 0.03 0.04 0.04 0.03 0.03 0.02 0.02 0.03 0.03 0.05 0.07 0.07 0.06 0.05 0.05 0.07 0.07 0.06 0.04 0.03 0.03 0.02
0.00 0.00 0.00 0.00 0.00 0.00 0.00 0.00 0.00 0.00 0.00 0.00 0.00 0.01 0.01 0.01 0.01 0.00 0.00 0.00 0.01 0.02 0.03 0.03 0.03 0.02 0.01 0.02 0.02 0.04 0.05 0.06 0.07 0.07 0.07 0.06 0.06 0.06 0.05 0.04 0.03 0.02 0.03 0.03
0.00 0.00 0.00 0.00 0.00 0.00 0.00 0.00 0.00 0.00 0.00 0.00 0.00 0.00 0.00 0.00 0.00 0.00 0.01 0.01 0.01 0.01 0.01 0.01 0.01 0.01 0.01 0.02 0.02 0.03 0.04 0.06 0.06 0.05 0.05 0.05 0.06 0.04 0.03 0.02 0.02 0.02 0.03 0.04
0.00 0.00 0.00 0.00 0.00 0.00 0.00 0.00 0.00 0.00 0.00 0.00 0.00 0.00 0.00 0.00 0.01 0.01 0.00 0.00 0.00 0.00 0.01 0.01 0.01 0.01 0.01 0.02 0.02 0.03 0.04 0.04 0.05 0.04 0.04 0.05 0.04 0.03 0.02 0.01 0.01 0.01 0.02 0.03
0.00 0.00 0.00 0.00 0.00 0.01 0.00 0.00 0.00 0.01 0.01 0.00 0.00 0.00 0.00 0.00 0.01 0.00 0.00 0.00 0.01 0.00 0.01 0.01 0.01 0.01 0.01 0.02 0.02 0.03 0.04 0.02 0.02 0.02 0.01 0.02 0.02 0.02 0.02 0.01 0.02 0.02 0.02 0.03
0.00 0.00 0.00 0.01 0.01 0.01 0.01 0.00 0.00 0.00 0.00 0.00 0.00 0.00 0.00 0.00 0.00 0.00 0.00 0.00 0.00 0.00 0.01 0.01 0.01 0.00 0.01 0.02 0.04 0.05 0.03 0.02 0.01 0.02 0.02 0.03 0.03 0.03 0.02 0.02 0.02 0.02 0.02 0.03
0.00 0.00 0.00 0.00 0.01 0.01 0.01 0.01 0.01 0.00 0.00 0.00 0.00 0.00 0.00 0.00 0.01 0.01 0.01 0.00 0.00 0.01 0.01 0.00 0.00 0.00 0.02 0.03 0.03 0.05 0.03 0.02 0.02 0.02 0.02 0.02 0.03 0.04 0.05 0.04 0.03 0.02 0.02 0.02
0.01 0.00 0.00 0.00 0.01 0.02 0.02 0.02 0.01 0.00 0.00 0.00 0.00 0.00 0.01 0.01 0.01 0.02 0.01 0.01 0.01 0.01 0.01 0.01 0.01 0.01 0.02 0.03 0.03 0.03 0.04 0.03 0.03 0.02 0.02 0.03 0.02 0.04 0.05 0.06 0.05 0.04 0.03 0.03
0.03 0.02 0.01 0.02 0.03 0.03 0.02 0.02 0.01 0.00 0.00 0.00 0.00 0.00 0.01 0.01 0.01 0.01 0.01 0.01 0.01 0.01 0.01 0.01 0.01 0.01 0.02 0.03 0.03 0.03 0.04 0.04 0.03 0.03 0.03 0.04 0.04 0.06 0.07 0.08 0.08 0.08 0.08 0.06
0.02 0.02 0.02 0.03 0.02 0.02 0.02 0.01 0.01 0.01 0.00 0.00 0.00 0.00 0.00 0.01 0.01 0.00 0.00 0.01 0.01 0.01 0.01 0.01 0.01 0.02 0.02 0.03 0.04 0.04 0.05 0.06 0.06 0.05 0.04 0.04 0.06 0.09 0.11 0.11 0.10 0.09 0.08 0.06
MSLP
1010.20 1010.69 1011.02 1011.18 1011.19 1011.09 1010.92 1010.73 1010.55 1010.42 1010.33 1010.28 1010.26 1010.25 1010.25 1010.27 1010.32 1010.40 1010.54 1010.72 1010.95 1011.20 1011.47 1011.72 1011.96 1012.18 1012.39 1012.62 1012.88 1013.20 1013.58 1014.03 1014.52 1015.03 1015.53 1015.98 1016.37 1016.68 1016.91 1017.06 1017.15 1017.20 1017.22 1017.22
1010.68 1011.08 1011.33 1011.41 1011.36 1011.22 1011.04 1010.86 1010.69 1010.56 1010.45 1010.35 1010.26 1010.16 1010.06 1009.99 1009.97 1010.02 1010.15 1010.38 1010.68 1011.02 1011.38 1011.73 1012.04 1012.30 1012.53 1012.75 1012.98 1013.26 1013.60 1013.99 1014.44 1014.91 1015.37 1015.79 1016.14 1016.41 1016.59 1016.71 1016.78 1016.82 1016.85 1016.88
1011.03 1011.33 1011.47 1011.48 1011.40 1011.25 1011.10 1010.95 1010.83 1010.73 1010.61 1010.47 1010.30 1010.09 1009.86 1009.66 1009.53 1009.49 1009.59 1009.82 1010.16 1010.59 1011.04 1011.49 1011.88 1012.21 1012.48 1012.72 1012.95 1013.21 1013.52 1013.89 1014.31 1014.76 1015.19 1015.58 1015.89 1016.13 1016.27 1016.36 1016.40 1016.43 1016.46 1016.51
1011.23 1011.41 1011.46 1011.42 1011.32 1011.21 1011.11 1011.05 1011.01 1010.96 1010.86 1010.69 1010.42 1010.09 1009.70 1009.34 1009.05 1008.89 1008.91 1009.10 1009.46 1009.93 1010.46 1011.00 1011.49 1011.90 1012.24 1012.52 1012.78 1013.05 1013.36 1013.73 1014.14 1014.57 1014.99 1015.36 1015.66 1015.86 1015.98 1016.03 1016.05 1016.05 1016.08 1016.14
1011.29 1011.36 1011.33 1011.26 1011.17 1011.13 1011.13 1011.19 1011.25 1011.27 1011.20 1011.00 1010.66 1010.19 1009.64 1009.09 1008.61 1008.30 1008.20 1008.32 1008.65 1009.14 1009.73 1010.35 1010.92 1011.42 1011.84 1012.18 1012.49 1012.79 1013.13 1013.51 1013.93 1014.37 1014.79 1015.15 1015.44 1015.62 1015.72 1015.74 1015.73 1015.72 1015.74 1015.80
1011.24 1011.21 1011.13 1011.05 1011.01 1011.05 1011.18 1011.36 1011.54 1011.65 1011.63 1011.42 1011.00 1010.40 1009.69 1008.95 1008.29 1007.80 1007.55 1007.57 1007.85 1008.33 1008.95 1009.62 1010.27 1010.85 1011.34 1011.75 1012.11 1012.46 1012.83 1013.23 1013.67 1014.13 1014.55 1014.93 1015.21 1015.39 1015.47 1015.48 1015.45 1015.42 1015.43 1015.48
1011.10 1011.01 1010.91 1010.84 1010.86 1011.01 1011.25 1011.57 1011.87 1012.07 1012.09 1011.88 1011.41 1010.70 1009.85 1008.94 1008.10 1007.44 1007.05 1006.96 1007.16 1007.60 1008.22 1008.92 1009.61 1010.25 1010.80 1011.27 1011.68 1012.07 1012.47 1012.90 1013.36 1013.83 1014.27 1014.65 1014.94 1015.13 1015.21 1015.21 1015.18 1015.14 1015.13 1015.17
1010.92 1010.80 1010.70 1010.67 1010.76 1011.00 1011.36 1011.79 1012.19 1012.47 1012.54 1012.33 1011.83 1011.05 1010.09 1009.05 1008.07 1007.27 1006.74 1006.53 1006.65 1007.03 1007.61 1008.30 1009.01 1009.67 1010.26 1010.77 1011.21 1011.63 1012.05 1012.49 1012.97 1013.44 1013.90 1014.29 1014.59 1014.79 1014.88 1014.90 1014.87 1014.83 1014.82 1014.86
1010.72 1010.61 1010.54 1010.56 1010.72 1011.04 1011.48 1011.99 1012.47 1012.81 1012.91 1012.71 1012.19 1011.38 1010.36 1009.24 1008.17 1007.26 1006.63 1006.32 1006.33 1006.64 1007.16 1007.80 1008.49 1009.14 1009.73 1010.24 1010.69 1011.12 1011.54 1011.99 1012.46 1012.94 1013.40 1013.81 1014.13 1014.34 1014.46 1014.50 1014.49 1014.48 1014.48 1014.53
1010.55 1010.48 1010.46 1010.54 1010.75 1011.12 1011.61 1012.15 1012.66 1013.02 1013.15 1012.96 1012.45 1011.64 1010.61 1009.46 1008.35 1007.38 1006.67 1006.27 1006.20 1006.41 1006.84 1007.41 1008.03 1008.64 1009.19 1009.68 1010.12 1010.53 1010.95 1011.38 1011.84 1012.31 1012.77 1013.18 1013.52 1013.77 1013.92 1014.00 1014.03 1014.05 1014.08 1014.15
1010.42 1010.43 1010.47 1010.61 1010.86 1011.24 1011.73 1012.26 1012.75 1013.10 1013.22 1013.05 1012.56 1011.78 1010.78 1009.66 1008.56 1007.58 1006.82 1006.36 1006.19 1006.29 1006.61 1007.08 1007.61 1008.13 1008.63 1009.07 1009.47 1009.85 1010.24 1010.65 1011.10 1011.56 1012.01 1012.43 1012.79 1013.07 1013.27 1013.39 1013.48 1013.54 1013.62 1013.72
1010.37 1010.47 1010.59 1010.77 1011.04 1011.40 1011.85 1012.32 1012.75 1013.05 1013.14 1012.97 1012.51 1011.79 1010.85 1009.80 1008.74 1007.78 1007.01 1006.49 1006.24 1006.23 1006.43 1006.77 1007.18 1007.61 1008.02 1008.40 1008.75 1009.09 1009.45 1009.84 1010.26 1010.70 1011.15 1011.57 1011.96 1012.27 1012.51 1012.69 1012.83 1012.95 1013.07 1013.21
1010.41 1010.61 1010.80 1011.02 1011.28 1011.60 1011.97 1012.34 1012.67 1012.89 1012.94 1012.76 1012.33 1011.67 1010.82 1009.86 1008.87 1007.96 1007.19 1006.63 1006.29 1006.17 1006.24 1006.45 1006.73 1007.04 1007.36 1007.67 1007.97 1008.27 1008.60 1008.96 1009.36 1009.79 1010.23 1010.66 1011.06 1011.41 1011.69 1011.92 1012.12 1012.28 1012.45 1012.61
1010.55 1010.84 1011.10 1011.34 1011.57 1011.82 1012.08 1012.33 1012.54 1012.66 1012.64 1012.45 1012.05 1011.46 1010.70 1009.84 1008.95 1008.09 1007.34 1006.74 1006.33 1006.10 1006.04 1006.10 1006.25 1006.45 1006.68 1006.91 1007.16 1007.43 1007.73 1008.07 1008.45 1008.87 1009.30 1009.73 1010.14 1010.51 1010.83 1011.10 1011.34 1011.54 1011.73 1011.92
1010.77 1011.14 1011.45 1011.69 1011.88 1012.05 1012.19 1012.31 1012.39 1012.40 1012.31 1012.09 1011.71 1011.19 1010.53 1009.77 1008.97 1008.17 1007.44 1006.82 1006.34 1006.00 1005.81 1005.74 1005.76 1005.85 1005.99 1006.16 1006.36 1006.60 1006.88 1007.20 1007.56 1007.96 1008.39 1008.81 1009.23 1009.61 1009.95 1010.25 1010.51 1010.74 1010.94 1011.13
1011.03 1011.46 1011.79 1012.03 1012.17 1012.25 1012.27 1012.26 1012.21 1012.12 1011.97 1011.72 1011.38 1010.92 1010.35 1009.69 1008.97 1008.23 1007.51 1006.87 1006.32 1005.88 1005.57 1005.37 1005.27 1005.26 1005.31 1005.43 1005.59 1005.80 1006.06 1006.36 1006.71 1007.10 1007.51 1007.92 1008.33 1008.72 1009.07 1009.38 1009.65 1009.88 1010.08 1010.25
1011.28 1011.74 1012.08 1012.29 1012.39 1012.38 1012.31 1012.19 1012.04 1011.86 1011.65 1011.40 1011.08 1010.68 1010.18 1009.60 1008.95 1008.26 1007.56 1006.88 1006.26 1005.74 1005.31 1005.00 1004.80 1004.69 1004.68 1004.73 1004.86 1005.04 1005.28 1005.57 1005.90 1006.27 1006.66 1007.06 1007.46 1007.84 1008.19 1008.51 1008.77 1009.00 1009.18 1009.33
1011.46 1011.92 1012.25 1012.43 1012.48 1012.41 1012.27 1012.07 1011.85 1011.63 1011.39 1011.14 1010.84 1010.49 1010.06 1009.54 1008.94 1008.27 1007.57 1006.86 1006.18 1005.57 1005.05 1004.63 1004.33 1004.15 1004.07 1004.08 1004.17 1004.33 1004.55 1004.82 1005.13 1005.47 1005.84 1006.23 1006.61 1006.99 1007.34 1007.65 1007.91 1008.13 1008.30 1008.43
1011.51 1011.94 1012.24 1012.40 1012.42 1012.32 1012.14 1011.91 1011.66 1011.42 1011.18 1010.94 1010.68 1010.36 1009.97 1009.49 1008.92 1008.26 1007.54 1006.79 1006.05 1005.36 1004.75 1004.25 1003.87 1003.62 1003.48 1003.45 1003.51 1003.65 1003.84 1004.09 1004.38 1004.70 1005.06 1005.42 1005.80 1006.17 1006.52 1006.84 1007.11 1007.33 1007.50 1007.61
1011.39 1011.78 1012.04 1012.18 1012.19 1012.09 1011.91 1011.69 1011.46 1011.23 1011.01 1010.80 1010.56 1010.27 1009.91 1009.44 1008.87 1008.20 1007.45 1006.65 1005.85 1005.09 1004.41 1003.85 1003.41 1003.10 1002.92 1002.85 1002.88 1003.00 1003.17 1003.40 1003.67 1003.97 1004.31 1004.67 1005.04 1005.42 1005.78 1006.12 1006.41 1006.65 1006.84 1006.96
1011.12 1011.44 1011.67 1011.79 1011.81 1011.74 1011.60 1011.42 1011.24 1011.05 1010.87 1010.69 1010.47 1010.19 1009.83 1009.35 1008.76 1008.05 1007.26 1006.42 1005.57 1004.76 1004.03 1003.42 1002.94 1002.60 1002.39 1002.30 1002.32 1002.41 1002.57 1002.78 1003.03 1003.32 1003.64 1003.99 1004.37 1004.76 1005.15 1005.52 1005.86 1006.14 1006.36 1006.52
1010.72 1010.97 1011.17 1011.29 1011.33 1011.30 1011.23 1011.12 1011.00 1010.87 1010.74 1010.58 1010.37 1010.09 1009.70 1009.19 1008.56 1007.82 1006.99 1006.11 1005.22 1004.38 1003.63 1003.00 1002.51 1002.15 1001.94 1001.84 1001.85 1001.93 1002.07 1002.27 1002.50 1002.77 1003.09 1003.44 1003.82 1004.23 1004.66 1005.07 1005.45 1005.79 1006.07 1006.28
1010.26 1010.45 1010.61 1010.73 1010.80 1010.83 1010.82 1010.79 1010.74 1010.68 1010.58 1010.43 1010.22 1009.91 1009.49 1008.94 1008.27 1007.48 1006.62 1005.72 1004.83 1003.99 1003.25 1002.63 1002.15 1001.82 1001.62 1001.53 1001.53 1001.61 1001.74 1001.91 1002.13 1002.38 1002.68 1003.02 1003.41 1003.84 1004.30 1004.75 1005.19 1005.59 1005.94 1006.22
1009.83 1009.95 1010.07 1010.18 1010.28 1010.36 1010.42 1010.46 1010.47 1010.44 1010.36 1010.22 1009.98 1009.64 1009.17 1008.58 1007.87 1007.06 1006.19 1005.30 1004.43 1003.63 1002.93 1002.37 1001.93 1001.64 1001.47 1001.40 1001.41 1001.48 1001.60 1001.75 1001.94 1002.17 1002.44 1002.77 1003.15 1003.58 1004.06 1004.54 1005.03 1005.49 1005.90 1006.25
1009.49 1009.54 1009.61 1009.72 1009.83 1009.95 1010.05 1010.13 1010.17 1010.16 1010.08 1009.91 1009.64 1009.26 1008.75 1008.12 1007.39 1006.58 1005.73 1004.89 1004.08 1003.35 1002.73 1002.24 1001.88 1001.65 1001.52 1001.47 1001.49 1001.56 1001.65 1001.77 1001.92 1002.11 1002.34 1002.64 1003.00 1003.41 1003.89 1004.39 1004.91 1005.41 1005.88 1006.29
1009.29 1009.26 1009.30 1009.38 1009.49 1009.61 1009.73 1009.81 1009.85 1009.83 1009.72 1009.52 1009.20 1008.77 1008.23 1007.58 1006.86 1006.08 1005.29 1004.52 1003.81 1003.18 1002.67 1002.28 1002.00 1001.83 1001.74 1001.72 1001.74 1001.78 1001.85 1001.92 1002.02 1002.16 1002.34 1002.58 1002.90 1003.29 1003.74 1004.23 1004.76 1005.28 1005.78 1006.24
Thickness
5840 5833 5831 5838 5842 5841 5839 5834 5832 5837 5848 5841 5836 5835 5839 5842 5840 5836 5832 5830 5827 5826 5827 5825 5822 5820 5816 5811 5806 5803 5800 5797 5794 5792 5789 5786 5784 5784 5783 5782 5778 5776 5774 5772
5828 5826 5840 5845 5843 5838 5835 5830 5831 5838 5845 5839 5836 5836 5843 5843 5839 5839 5835 5832 5830 5828 5826 5823 5822 5820 5817 5812 5808 5804 5801 5798 5796 5793 5790 5788 5786 5785 5783 5781 5777 5776 5774 5772
5821 5834 5842 5835 5832 5830 5831 5831 5831 5830 5836 5841 5834 5829 5835 5841 5843 5842 5840 5839 5837 5832 5827 5824 5821 5820 5819 5814 5811 5808 5803 5800 5797 5795 5793 5790 5786 5783 5782 5779 5778 5776 5774 5772
5826 5837 5832 5828 5829 5831 5825 5839 5836 5831 5826 5827 5830 5817 5830 5839 5836 5838 5839 5839 5837 5835 5832 5828 5824 5822 5820 5817 5814 5809 5804 5800 5797 5794 5792 5788 5784 5781 5779 5779 5778 5776 5773 5771
5821 5830 5825 5822 5830 5835 5832 5842 5836 5831 5826 5824 5828 5820 5829 5839 5831 5836 5840 5841 5841 5839 5835 5831 5828 5825 5823 5820 5816 5810 5804 5799 5796 5793 5790 5787 5785 5783 5782 5779 5776 5773 5773 5771
5827 5835 5833 5831 5837 5839 5837 5832 5829 5829 5827 5806 5819 5816 5817 5833 5833 5837 5841 5842 5841 5840 5837 5833 5830 5826 5823 5820 5815 5811 5804 5799 5796 5792 5789 5785 5782 5779 5776 5774 5773 5772 5773 5771
5811 5823 5833 5837 5826 5829 5830 5818 5805 5800 5801 5805 5824 5815 5818 5836 5841 5840 5840 5841 5842 5840 5837 5832 5828 5824 5820 5817 5814 5810 5804 5798 5795 5792 5788 5785 5781 5778 5774 5773 5772 5770 5770 5769
5799 5803 5823 5830 5826 5823 5825 5823 5801 5789 5795 5810 5814 5810 5826 5840 5842 5843 5843 5843 5841 5839 5838 5833 5829 5824 5820 5816 5812 5808 5803 5797 5794 5790 5786 5783 5780 5779 5777 5773 5772 5770 5768 5767
5804 5804 5826 5830 5834 5830 5818 5820 5831 5816 5809 5804 5811 5817 5826 5836 5834 5835 5836 5836 5836 5836 5835 5832 5829 5825 5820 5815 5811 5807 5801 5796 5792 5789 5784 5780 5778 5776 5773 5771 5770 5768 5765 5765
5811 5798 5816 5823 5827 5824 5827 5826 5817 5808 5786 5784 5799 5807 5814 5819 5821 5826 5827 5829 5831 5832 5832 5830 5827 5823 5819 5815 5809 5805 5799 5793 5790 5787 5783 5780 5775 5773 5770 5767 5764 5761 5760 5759
5811 5796 5803 5810 5807 5811 5810 5810 5810 5809 5806 5788 5786 5804 5826 5821 5822 5822 5823 5825 5826 5827 5827 5825 5822 5819 5815 5811 5805 5800 5796 5790 5786 5783 5780 5776 5773 5769 5765 5762 5759 5756 5755 5753
5803 5799 5793 5803 5818 5821 5817 5814 5809 5794 5789 5795 5792 5803 5829 5825 5825 5821 5820 5819 5820 5821 5821 5819 5815 5812 5808 5804 5800 5796 5792 5787 5783 5780 5776 5771 5768 5765 5761 5757 5754 5752 5750 5748
5795 5788 5775 5782 5795 5803 5803 5807 5811 5810 5801 5794 5788 5798 5822 5820 5817 5816 5812 5810 5810 5810 5811 5810 5806 5802 5799 5796 5793 5790 5787 5783 5781 5776 5772 5767 5764 5761 5756 5753 5749 5747 5744 5743
5792 5786 5779 5776 5788 5798 5793 5798 5801 5800 5794 5791 5793 5797 5806 5806 5805 5806 5804 5803 5802 5801 5799 5799 5796 5793 5790 5788 5785 5782 5780 5777 5774 5770 5766 5762 5759 5756 5753 5749 5744 5741 5739 5738
5784 5776 5780 5788 5796 5795 5792 5792 5794 5790 5793 5789 5794 5795 5800 5800 5799 5798 5797 5795 5792 5790 5789 5788 5786 5784 5781 5779 5777 5774 5773 5770 5767 5762 5759 5756 5754 5751 5747 5743 5739 5736 5734 5735
5774 5768 5771 5771 5783 5785 5781 5786 5788 5787 5789 5789 5788 5787 5799 5797 5794 5790 5788 5785 5782 5781 5781 5781 5779 5776 5773 5771 5769 5767 5765 5763 5760 5755 5751 5749 5746 5744 5740 5736 5734 5732 5731 5729
5763 5759 5755 5759 5773 5770 5763 5779 5781 5781 5787 5784 5777 5782 5786 5781 5778 5779 5780 5779 5776 5776 5774 5773 5771 5769 5766 5764 5762 5759 5757 5755 5751 5747 5744 5742 5740 5737 5734 5731 5729 5727 5727 5725
5750 5749 5752 5755 5752 5735 5768 5787 5783 5777 5778 5782 5779 5778 5777 5774 5773 5776 5777 5774 5770 5769 5767 5766 5766 5764 5763 5761 5757 5753 5750 5746 5742 5739 5736 5735 5733 5730 5727 5724 5722 5721 5721 5719
5751 5742 5743 5745 5742 5748 5762 5768 5770 5764 5762 5772 5770 5768 5768 5769 5767 5767 5768 5766 5763 5762 5761 5759 5760 5759 5756 5753 5750 5746 5742 5738 5734 5731 5729 5727 5725 5722 5720 5717 5716 5715 5713 5711
5741 5738 5736 5735 5730 5733 5752 5764 5769 5760 5747 5762 5762 5759 5758 5756 5751 5753 5757 5757 5755 5754 5752 5751 5750 5749 5745 5743 5741 5737 5733 5730 5726 5724 5722 5720 5718 5716 5713 5711 5709 5709 5707 5704
5724 5723 5725 5727 5727 5739 5749 5756 5755 5735 5739 5753 5754 5752 5750 5746 5746 5747 5748 5746 5745 5743 5742 5741 5740 5738 5736 5734 5731 5727 5723 5721 5720 5718 5716 5714 5711 5709 5708 5705 5703 5701 5699 5697
5718 5719 5717 5720 5717 5723 5740 5741 5735 5734 5742 5743 5743 5743 5740 5738 5738 5738 5736 5734 5734 5732 5731 5730 5728 5726 5726 5724 5721 5716 5713 5713 5711 5709 5707 5705 5704 5703 5702 5698 5695 5693 5690 5688
5714 5717 5720 5719 5719 5724 5729 5729 5731 5733 5730 5731 5732 5732 5730 5728 5727 5727 5725 5724 5723 5722 5721 5720 5718 5716 5715 5713 5711 5706 5704 5703 5702 5699 5697 5696 5695 5694 5693 5691 5689 5686 5683 5683
5706 5708 5708 5708 5713 5716 5719 5721 5722 5723 5722 5723 5723 5722 5722 5718 5717 5716 5715 5714 5713 5712 5711 5710 5708 5706 5703 5703 5701 5699 5697 5694 5691 5689 5688 5687 5686 5685 5684 5682 5681 5679 5677 5675
5698 5698 5697 5695 5702 5704 5707 5709 5712 5713 5714 5714 5714 5714 5712 5709 5707 5706 5705 5704 5703 5702 5701 5700 5698 5695 5693 5692 5690 5689 5687 5685 5682 5680 5680 5679 5679 5678 5674 5672 5670 5669 5666 5664
5692 5690 5688 5689 5694 5694 5695 5702 5703 5702 5701 5702 5702 5701 5702 5700 5697 5697 5696 5695 5693 5692 5691 5690 5688 5686 5684 5682 5680 5680 5678 5676 5673 5672 5671 5670 5669 5667 5666 5663 5661 5657 5654 5651